Mayport NS, FL

11:44 AM EDT on March 30, 2017 (GMT -0400)
Mayport Naval Station / Adm. David L. McDonald Field

Weather History for KNRB - May, 2014

Change the Weather History Date:

Sunday, May 25, 2014

  Actual Average Record
Temperature  
Mean Temperature 80 °F -  
Max Temperature 87 °F 83 °F 95 °F (2000)
Min Temperature 75 °F 69 °F 64 °F (2001)
Cooling Degree Days 16    
Growing Degree Days 30 (Base 50)    
Moisture  
Dew Point 72 °F    
Average Humidity 79    
Maximum Humidity 91    
Minimum Humidity 61    
Precipitation  
Precipitation 0.00 in - - ()
Sea Level Pressure  
Sea Level Pressure 30.11 in    
Wind  
Wind Speed 7 mph (East)    
Max Wind Speed 16 mph    
Max Gust Speed -    
Visibility 9 miles    
Events      
Averages and records for this station are not official NWS values.
T = Trace of Precipitation, MM = Missing Value Source: NWS Daily Summary

Daily Weather History Graph

Daily Weather History Graph

Search for Another Location

Airport or City:

Trip Planner

Search our weather history database for the weather conditions in past years. The results will help you decide how hot, cold, wet, or windy it might be!

Date:

Astronomy

May. 25, 2014 Rise Set
Actual Time 6:26 AM EDT 8:19 PM EDT
Civil Twilight 5:59 AM EDT 8:46 PM EDT
Nautical Twilight 5:27 AM EDT 9:18 PM EDT
Astronomical Twilight 4:52 AM EDT 9:53 PM EDT
Moon 4:15 AM EDT (5/25) 5:30 PM EDT (5/25)
Length of Visible Light 14h 46m
Length of Day
13h 52m
Waning Crescent, 10% of the Moon is Illuminated
May 25
Waning Crescent
May 28
New
Jun 5
First Quarter
Jun 13
Full
Jun 19
Last Quarter

Hourly Weather History & Observations

Time (EDT) Temp. Heat Index Dew Point Humidity Pressure Visibility Wind Dir Wind Speed Gust Speed Precip Events Conditions
12:52 AM 75.9 °F - 72.0 °F 87% 30.08 in 8.0 mi East 5.8 mph - N/A   Clear
1:52 AM 75.0 °F - 72.0 °F 90% 30.07 in 7.0 mi East 3.5 mph - N/A   Clear
2:52 AM 75.9 °F - 72.0 °F 87% 30.06 in 7.0 mi ENE 4.6 mph - N/A   Partly Cloudy
3:52 AM 75.9 °F - 73.0 °F 91% 30.06 in 7.0 mi ENE 4.6 mph - N/A   Partly Cloudy
4:45 AM 75.9 °F - 73.0 °F 91% 30.06 in 6.0 mi ENE 4.6 mph - N/A   Mostly Cloudy
4:52 AM 75.9 °F - 73.0 °F 91% 30.06 in 6.0 mi ENE 4.6 mph - N/A   Mostly Cloudy
5:52 AM 75.9 °F - 73.0 °F 91% 30.07 in 6.0 mi East 4.6 mph - N/A   Mostly Cloudy
6:52 AM 75.9 °F - 73.0 °F 91% 30.08 in 6.0 mi ESE 5.8 mph - N/A   Scattered Clouds
7:52 AM 78.1 °F - 73.9 °F 87% 30.09 in 6.0 mi East 5.8 mph - N/A   Scattered Clouds
8:26 AM 79.0 °F - 73.9 °F 84% 30.11 in 7.0 mi ENE 10.4 mph - N/A   Mostly Cloudy
8:36 AM 78.1 °F - 73.9 °F 87% 30.11 in 7.0 mi ENE 9.2 mph - N/A   Mostly Cloudy
8:52 AM 79.0 °F - 73.0 °F 82% 30.12 in 8.0 mi ENE 8.1 mph - N/A   Mostly Cloudy
9:07 AM 79.0 °F - 73.0 °F 82% 30.12 in 8.0 mi East 8.1 mph - N/A   Scattered Clouds
9:52 AM 80.1 °F 84.2 °F 73.0 °F 79% 30.13 in 9.0 mi East 8.1 mph - N/A   Partly Cloudy
10:52 AM 81.0 °F 85.2 °F 72.0 °F 74% 30.14 in 10.0 mi East 8.1 mph - N/A   Clear
11:03 AM 82.0 °F 87.4 °F 73.0 °F 74% 30.14 in 10.0 mi East 6.9 mph - N/A   Overcast
11:52 AM 84.0 °F 89.6 °F 72.0 °F 67% 30.14 in 10.0 mi East 9.2 mph - N/A   Overcast
12:52 PM 84.9 °F 89.4 °F 70.0 °F 61% 30.13 in 10.0 mi ESE 11.5 mph - N/A   Overcast
1:52 PM 84.9 °F 90.1 °F 71.1 °F 63% 30.12 in 10.0 mi ESE 11.5 mph - N/A   Overcast
2:52 PM 86.0 °F 91.5 °F 71.1 °F 61% 30.12 in 10.0 mi East 12.7 mph - N/A   Mostly Cloudy
3:52 PM 84.0 °F 90.2 °F 73.0 °F 69% 30.11 in 10.0 mi East 12.7 mph - N/A   Mostly Cloudy
4:52 PM 84.9 °F 91.4 °F 73.0 °F 67% 30.10 in 10.0 mi East 11.5 mph - N/A   Mostly Cloudy
5:52 PM 82.0 °F 86.3 °F 71.1 °F 69% 30.09 in 10.0 mi East 16.1 mph - N/A   Mostly Cloudy
6:52 PM 80.1 °F 82.9 °F 69.1 °F 69% 30.11 in 10.0 mi SE 13.8 mph - N/A   Mostly Cloudy
7:52 PM 79.0 °F - 69.1 °F 72% 30.11 in 10.0 mi SSE 16.1 mph - N/A   Mostly Cloudy
8:52 PM 78.1 °F - 69.1 °F 74% 30.16 in 10.0 mi SSE 6.9 mph - N/A   Mostly Cloudy
9:52 PM 78.1 °F - 70.0 °F 76% 30.16 in 10.0 mi SE 9.2 mph - N/A   Mostly Cloudy
10:52 PM 77.0 °F - 70.0 °F 79% 30.18 in 10.0 mi East 5.8 mph - N/A   Partly Cloudy
11:52 PM 77.0 °F - 71.1 °F 82% 30.18 in 10.0 mi ENE 9.2 mph - N/A   Clear